カタログに戻る

MARAFON NO. 2 GMM

運用中通信SSO
NORAD 67251·PAYLOAD·🇹🇷 Turkey
この衛星名は、まだ公式ソースで確認されていません。

打ち上げ Dec 28, 2025 から Vostochny Cosmodrome

Loading…

次のパス (今後24時間)

TLE

最新Source: Space-Track

元期: Sep 14, 2026, 03:18 UTC

1 67251U 25313D   26257.13797768  .00001731  00000-0  15109-3 0  9996
2 67251  97.5606 323.6695 0148474  31.9638 329.0481 14.89988251 38641

AllMySatでMARAFON NO. 2 GMMをリアルタイム追跡

Download on the App Store